Location: Berkeley
(37.8716°N, 122.2727°W)
Time: 01:13:17
(UTC-07:00)

ISS - Visible Passes

Search period start: 23 October 2018 00:00
Search period end: 02 November 2018 00:00
Orbit: 403 x 408 km, 51.6° (Epoch: 23 October)

Date Brightness Start Highest point End Pass type
(mag) Time Alt. Az. Time Alt. Az. Time Alt. Az.
23 Oct -0.5 06:45:46 10° SSE 06:47:07 12° SE 06:48:27 10° ESE visible
25 Oct -1.9 06:36:27 10° SSW 06:39:21 31° SE 06:42:19 10° ENE visible
26 Oct -0.9 05:45:29 10° SSE 05:47:32 16° SE 05:49:36 10° E visible
27 Oct -3.9 06:28:45 12° SW 06:31:43 88° SE 06:35:00 10° NE visible
28 Oct -2.7 05:39:43 41° SE 05:39:45 41° SE 05:42:51 10° ENE visible
29 Oct -3.1 06:23:10 28° WNW 06:24:10 36° NNW 06:27:15 10° NE visible
30 Oct -1.9 05:33:43 27° NE 05:33:43 27° NE 05:35:20 10° NE visible
30 Oct -1.6 07:07:19 10° NW 07:09:03 14° NNW 07:10:48 10° NNE visible
31 Oct -2.1 06:16:48 19° NNW 06:16:48 19° NNW 06:19:12 10° NNE visible
01 Nov -0.9 05:27:05 12° NNE 05:27:05 12° NNE 05:27:26 10° NNE visible
